TimeMDT,TemperatureF,Dew PointF,Humidity,Sea Level PressureIn,VisibilityMPH,Wind Direction,Wind SpeedMPH,Gust SpeedMPH,PrecipitationIn,Events,Conditions,WindDirDegrees,DateUTC
12:53 AM,59.0,27.0,29,29.77,10.0,WSW,6.9,-,N/A,,Clear,240,2013-05-26 06:53:00
1:53 AM,57.9,32.0,37,29.76,10.0,WSW,4.6,-,N/A,,Clear,240,2013-05-26 07:53:00
2:53 AM,55.9,32.0,40,29.77,10.0,Calm,Calm,-,N/A,,Clear,0,2013-05-26 08:53:00
3:53 AM,51.1,33.1,50,29.78,10.0,WSW,5.8,-,N/A,,Clear,240,2013-05-26 09:53:00
4:53 AM,48.0,33.1,56,29.79,10.0,ESE,3.5,-,N/A,,Clear,120,2013-05-26 10:53:00
5:53 AM,50.0,34.0,54,29.80,10.0,WNW,4.6,-,N/A,,Clear,300,2013-05-26 11:53:00
6:53 AM,52.0,34.0,50,29.82,10.0,Calm,Calm,-,N/A,,Clear,0,2013-05-26 12:53:00
7:53 AM,54.0,37.0,53,29.82,10.0,WNW,5.8,-,N/A,,Clear,290,2013-05-26 13:53:00
8:53 AM,60.1,36.0,41,29.83,10.0,North,3.5,-,N/A,,Clear,360,2013-05-26 14:53:00
9:53 AM,63.0,39.0,41,29.82,10.0,Calm,Calm,-,N/A,,Clear,0,2013-05-26 15:53:00
10:53 AM,66.0,39.0,37,29.79,10.0,Variable,4.6,-,N/A,,Clear,0,2013-05-26 16:53:00
11:53 AM,68.0,39.9,36,29.78,10.0,NNE,6.9,-,N/A,,Clear,30,2013-05-26 17:53:00
12:53 PM,68.0,39.0,35,29.74,10.0,North,6.9,-,N/A,,Clear,350,2013-05-26 18:53:00
1:53 PM,70.0,37.9,31,29.72,10.0,North,5.8,-,N/A,,Clear,350,2013-05-26 19:53:00
2:53 PM,73.0,39.0,29,29.69,10.0,ENE,6.9,-,N/A,,Clear,70,2013-05-26 20:53:00
3:53 PM,75.9,35.1,23,29.66,10.0,ESE,11.5,21.9,N/A,,Clear,110,2013-05-26 21:53:00
4:20 PM,78.8,26.6,15,29.83,10.0,South,13.8,26.5,N/A,,Clear,180,2013-05-26 22:20:00
4:53 PM,78.1,23.0,13,29.65,10.0,SW,9.2,28.8,N/A,,Clear,230,2013-05-26 22:53:00
5:53 PM,75.9,19.9,12,29.64,10.0,SW,10.4,20.7,N/A,,Clear,230,2013-05-26 23:53:00
6:53 PM,75.9,19.0,12,29.63,10.0,WSW,9.2,-,N/A,,Clear,240,2013-05-27 00:53:00
7:53 PM,73.0,19.9,14,29.64,10.0,West,9.2,-,N/A,,Clear,260,2013-05-27 01:53:00
8:53 PM,64.9,24.1,21,29.67,10.0,WSW,11.5,-,N/A,,Clear,240,2013-05-27 02:53:00
9:53 PM,63.0,24.1,23,29.69,10.0,WSW,12.7,-,N/A,,Clear,240,2013-05-27 03:53:00
10:53 PM,61.0,26.1,26,29.68,10.0,West,10.4,-,N/A,,Clear,260,2013-05-27 04:53:00
11:53 PM,55.0,28.0,35,29.69,10.0,South,6.9,-,N/A,,Clear,180,2013-05-27 05:53:00